Home > Weather > Behbahan > Past weeks

Flag for Iran Past Weather in Behbahan, Iran — Yesterday and Last 2 Weeks

Now
77 °F

Clear.


Feels Like: 78 °F
Forecast: 79 / 112 °F
Wind: No wind

Location: Gach Saran Du Gunbadan

Current Time: Aug 30, 2016 at 7:58:12 AM

Latest Report: Aug 30, 2016 at 7:30 AM


Visibility: 10 mi

Pressure: 29.86 "Hg

Humidity: 34%

Dew Point: 46 °F

Location of BehbahanLocation

Past Weather in Behbahan — Graph

°F

Behbahan Temperature Yesterday

Maximum temperature yesterday: 111 °F (at 2:30 PM)
Minimum temperature yesterday: 81 °F (at 3:30 AM)
Average temperature yesterday: 96 °F

High & Low Weather Summary for the Past Weeks

 TemperatureHumidityPressure
High113 °F (Aug 15, 1:30 PM)45% (Aug 27, 4:30 AM)30.30 "Hg (Aug 27, 4:30 AM)
Low75 °F (Aug 25, 6:30 AM)4% (Aug 15, 1:30 PM)29.59 "Hg (Aug 17, 4:30 PM)
Average95 °F14%29.76 "Hg
* Reported Aug 15 6:30 AM — Aug 30 6:40 AM, Behbahan, Weather by CustomWeather, © 2016

Note: Actual official high and low records may vary slightly from our data, if they occured in-between our weather recording intervals... More about our weather records

Advertising

Behbahan Weather History for the Previous 24 Hours

Scroll right to see more
 ConditionsComfort  
Time TempWeatherWind HumidityBarometerVisibility
6:40 AM
Tue, Aug 30
79 °FPleasantly warm.N/A28%29.83 "HgN/A
4:30 AM81 °FClear.No wind23%29.83 "Hg10 mi
3:30 AM81 °FClear.No wind28%29.83 "Hg10 mi
2:30 AM82 °FClear.No wind25%29.83 "Hg10 mi
1:30 AM86 °FClear.No wind15%29.83 "Hg10 mi
12:30 AM93 °FClear.No wind14%29.83 "Hg10 mi
11:30 PM
Mon, Aug 29
93 °FClear.7 mph14%29.83 "Hg10 mi
10:30 PM95 °FClear.No wind13%29.83 "Hg10 mi
9:30 PM99 °FClear.12 mph12%29.83 "Hg10 mi
8:30 PM100 °FSunny.12 mph11%29.80 "Hg10 mi
7:30 PM102 °FSunny.14 mph12%29.77 "Hg10 mi
6:30 PM104 °FSunny.18 mph12%29.77 "Hg10 mi
5:30 PM108 °FSunny.16 mph8%29.77 "Hg10 mi
4:30 PM111 °FSunny.7 mph5%29.77 "Hg10 mi
3:30 PM109 °FSunny.12 mph5%29.77 "Hg10 mi
2:30 PM111 °FSunny.No wind5%29.80 "Hg10 mi
1:30 PM109 °FSunny.No wind5%29.83 "Hg10 mi
12:30 PM109 °FSunny.14 mph5%29.86 "Hg10 mi
11:30 AM106 °FSunny.7 mph6%29.89 "Hg10 mi
10:30 AM104 °FSunny.No wind6%29.89 "Hg10 mi
9:30 AM97 °FSunny.No wind10%29.89 "Hg10 mi
8:30 AM90 °FSunny.No wind14%29.89 "Hg10 mi
7:30 AM81 °FClear.No wind21%29.89 "Hg10 mi
Weather by CustomWeather, © 2016

See weather overviewHow to use our weather pages